User: anonymous
Location: NJAA Observatory
(40.6819°N, 74.8979°W)
Time: 19:29:52
(UTC-04:00)
Language:

Cosmos 2082 - Orbit

View from above orbital plane
View from above orbital plane
View from above satellite
View from above satellite

Ground track
Ground track

The orbit data is extracted from the following two-line orbital elements,

1 20624U 90046A   14110.48154440  .00000225  00000-0  14267-3 0  9004
2 20624 071.0401 109.0970 0016066 339.0633 180.8277 14.14071542234091
Epoch (UTC): 20 April 2014 11:33:25
Eccentricity: 0.0016066
inclination: 71.0401°
perigee height: 834 km
apogee height: 857 km
right ascension of ascending node: 109.0970°
argument of perigee: 339.0633°
revolutions per day: 14.14071542
mean anomaly at epoch: 180.8277°
orbit number at epoch: 23409

The dashed part of the orbit path shows where the satellite is in the earth's shadow,  

DLR